[[{"header":{"parameterUnit":"m.s-1","parameterCategory":1,"la1":30.2991,"la2":30.254,"lo1":-89.0895,"lo2":-89.0444,"dy":0.0017,"dx":0.0017,"nx":28,"ny":28,"refTime":"2025-09-05T21:00:00:Z","depth":0,"parameterNumber":2,"parameterNumberName":"U-component_of_WINDS"},"data":[0,0,0,0,0,0,0,0,0,0,0,0,0,0,0,0,0,0,0,0,0,0,0,0,0,0,0,0,0,0,0,0,0,0,0,0,0,0,0,0,0,0,0,0,0,0,0,0,0,0,0,0,0,0,0,0,0,0,-0.6974,-0.6973,0,-0.6938,-0.6938,-0.6937,-0.6912,-0.6912,-0.6912,-0.6912,-0.6875,-0.6874,-0.6873,0,0,0,0,0,0,0,0,0,0,0,0,0,-0.7021,-0.702,-0.6974,-0.6973,-0.6973,-0.6938,-0.6938,-0.6937,-0.6912,-0.6912,-0.6912,-0.6912,-0.6875,-0.6874,-0.6873,0,0,0,0,0,0,0,0,0,0,0,0,0,-0.6994,-0.702,-0.6974,-0.6956,-0.6954,-0.6938,-0.6938,-0.6937,-0.6912,-0.6912,-0.6912,-0.6912,-0.6875,-0.6874,-0.6873,-0.6871,0,0,-0.6869,-0.6869,0,0,0,0,0,0,0,0,-0.6996,-0.6993,-0.6959,-0.6958,-0.6955,-0.6929,-0.6941,-0.6915,-0.6912,-0.6928,-0.6912,-0.6911,-0.6893,-0.689,-0.6884,-0.687,-0.6868,-0.6869,-0.6868,-0.6868,-0.6867,0,0,0,0,0,0,0,-0.6998,-0.6994,-0.696,-0.6959,-0.6956,-0.695,-0.6946,-0.6936,-0.6913,-0.6927,-0.6925,-0.6921,-0.6892,-0.6886,-0.6883,-0.6867,-0.6869,-0.6868,-0.6867,-0.6867,-0.6851,-0.6852,0,0,0,0,0,0,-0.7002,-0.6996,-0.6961,-0.6959,-0.6975,-0.695,-0.6945,-0.6938,-0.6913,-0.6909,-0.6921,-0.692,-0.6888,-0.6885,-0.6882,-0.6879,-0.6868,-0.6867,-0.6866,-0.6851,-0.6851,-0.6852,0,0,0,0,0,0,-0.7003,-0.6999,-0.6962,-0.6977,-0.6971,-0.6949,-0.6941,-0.6937,-0.6931,-0.6909,-0.6904,-0.6919,-0.6887,-0.6884,-0.6875,-0.6878,-0.6866,-0.6865,-0.6851,-0.6851,-0.6851,-0.6873,0,0,0,0,0,0,-0.7005,-0.7,-0.6999,-0.6977,-0.6971,-0.6955,-0.6942,-0.6937,-0.6929,-0.6927,-0.6905,-0.6902,-0.6887,-0.6876,-0.6873,-0.6876,-0.6864,-0.685,-0.6851,-0.6851,-0.6872,-0.6875,-0.6877,0,0,0,0,0,-0.7007,-0.7006,-0.6999,-0.6995,-0.6969,-0.6955,-0.6952,-0.6935,-0.6929,-0.6928,-0.6914,-0.6902,-0.6878,-0.6876,-0.6872,-0.6874,-0.685,-0.6851,-0.6851,-0.6871,-0.6874,-0.6876,0,0,0,0,0,0,-0.7028,-0.7003,-0.6994,-0.6987,-0.6974,-0.6951,-0.6949,-0.6939,-0.6927,-0.6925,-0.6905,-0.69,-0.6894,-0.6883,-0.6881,-0.6872,-0.6863,-0.6863,-0.6879,-0.6881,-0.6884,-0.6886,-0.6863,0,0,0,0,0,-0.7032,-0.7023,-0.7001,-0.6997,-0.6991,-0.6971,-0.6965,-0.6953,-0.6939,-0.6933,-0.6918,-0.6904,-0.6894,-0.6887,-0.6876,-0.6871,-0.6866,-0.6871,-0.6873,-0.6875,-0.6875,-0.6873,-0.6875,-0.6854,-0.6854,-0.6854,0,0,-0.704,-0.7025,-0.702,-0.7001,-0.6989,-0.6981,-0.6967,-0.6958,-0.6952,-0.6931,-0.6922,-0.6911,-0.6895,-0.6888,-0.6884,-0.6879,-0.688,-0.6876,-0.6877,-0.6876,-0.6874,-0.6876,-0.6877,-0.6854,-0.6854,-0.6854,0,0,-0.7049,-0.7037,-0.7032,-0.7022,-0.7005,-0.6992,-0.6991,-0.6971,-0.6963,-0.6954,-0.6939,-0.6931,-0.6913,-0.6902,-0.6895,-0.6903,-0.6892,-0.69,-0.6911,-0.6909,-0.691,-0.6912,-0.6915,-0.6917,-0.69,-0.69,-0.69,0,-0.7061,-0.7048,-0.7031,-0.7024,-0.7016,-0.6999,-0.6994,-0.6984,-0.6964,-0.696,-0.6954,-0.6932,-0.692,-0.6911,-0.6913,-0.6907,-0.6906,-0.6902,-0.6912,-0.6913,-0.6914,-0.6917,-0.6918,-0.6901,-0.6901,-0.6901,-0.6901,0,-0.7063,-0.7055,-0.7053,-0.7035,-0.7027,-0.7021,-0.7004,-0.6998,-0.6988,-0.6977,-0.6968,-0.6953,-0.6939,-0.6936,-0.6926,-0.6927,-0.6924,-0.6915,-0.6905,-0.6917,-0.692,-0.6921,-0.6903,-0.6903,-0.6902,-0.6902,0,0,-0.7084,-0.7059,-0.7058,-0.7051,-0.7032,-0.7025,-0.7019,-0.7006,-0.7002,-0.6989,-0.6984,-0.697,-0.6963,-0.6954,-0.6942,-0.6941,-0.695,-0.6933,-0.6932,-0.6937,-0.6951,-0.6957,-0.6959,-0.6943,-0.6943,-0.6943,-0.6952,0,-0.7091,-0.7079,-0.7065,-0.7058,-0.7051,-0.7035,-0.703,-0.7018,-0.7007,-0.7,-0.6988,-0.6979,-0.6969,-0.6964,-0.6962,-0.6949,-0.6952,-0.6948,-0.6938,-0.6938,-0.6942,-0.696,-0.6967,-0.6976,-0.6953,-0.6953,-0.6953,0,-0.7097,-0.7087,-0.7079,-0.7063,-0.7059,-0.7055,-0.7043,-0.7035,-0.7022,-0.7015,-0.7006,-0.6994,-0.6988,-0.698,-0.6971,-0.6969,-0.6964,-0.6957,-0.6957,-0.6955,-0.6946,-0.6959,-0.6979,-0.698,-0.6955,-0.6955,-0.6955,0,-0.7114,-0.7098,-0.7092,-0.7086,-0.7066,-0.7063,-0.7055,-0.7042,-0.7035,-0.7025,-0.7021,-0.701,-0.7004,-0.6996,-0.6982,-0.6977,-0.6975,-0.6965,-0.6969,-0.6969,-0.6969,-0.6969,-0.6988,-0.6966,-0.6966,-0.6966,-0.6966,0,-0.7123,-0.7119,-0.7099,-0.7095,-0.7091,-0.7075,-0.7072,-0.7062,-0.7051,-0.7045,-0.7031,-0.7026,-0.7007,-0.7001,-0.699,-0.6985,-0.6982,-0.6976,-0.6973,-0.6977,-0.6978,-0.6974,-0.6973,-0.6966,-0.6966,-0.6966,-0.6966,0,-0.714,-0.7126,-0.7119,-0.7102,-0.7097,-0.7095,-0.708,-0.7076,-0.7066,-0.7059,-0.7057,-0.704,-0.7032,-0.7017,-0.7004,-0.6997,-0.6994,-0.6989,-0.6999,-0.6997,-0.7002,-0.7002,-0.7019,-0.702,-0.6997,-0.6997,-0.6997,0,-0.7147,-0.7144,-0.7127,-0.7122,-0.7115,-0.7108,-0.7102,-0.7087,-0.7081,-0.7067,-0.7065,-0.7056,-0.7047,-0.7035,-0.7022,-0.7012,-0.7007,-0.7013,-0.7005,-0.701,-0.7007,-0.7008,-0.7008,-0.7015,-0.7015,-0.7016,-0.7016,0,-0.716,-0.7154,-0.7146,-0.7136,-0.713,-0.7121,-0.7112,-0.7109,-0.7092,-0.7087,-0.7078,-0.7072,-0.706,-0.7051,-0.704,-0.7032,-0.7021,-0.7019,-0.7019,-0.7023,-0.7029,-0.7027,-0.7004,-0.7018,-0.7018,-0.7018,-0.7018,-0.7018,-0.7173,-0.717,-0.7158,-0.715,-0.7142,-0.7134,-0.713,-0.7119,-0.7112,-0.7101,-0.7093,-0.7085,-0.7074,-0.7058,-0.7051,-0.7045,-0.704,-0.7041,-0.7041,-0.7041,-0.7043,-0.7031,-0.7043,-0.7043,-0.7043,-0.7043,-0.7043,0,-0.7186,-0.7178,-0.7171,-0.7159,-0.7153,-0.7145,-0.7134,-0.713,-0.7124,-0.7114,-0.7107,-0.7098,-0.709,-0.7077,-0.7068,-0.7066,-0.7061,-0.7064,-0.7064,-0.7062,-0.7048,-0.7048,-0.7068,-0.7068,-0.7068,-0.7068,-0.7068,-0.7068,-0.7192,-0.7187,-0.718,-0.7171,-0.7163,-0.7156,-0.7151,-0.7144,-0.7137,-0.7128,-0.7121,-0.7113,-0.7102,-0.7093,-0.7085,-0.7082,-0.7079,-0.7084,-0.7079,-0.7066,-0.7063,-0.7061,-0.7062,-0.7084,-0.7084,-0.7094,-0.7094,-0.7094]},{"header":{"parameterUnit":"m.s-1","parameterCategory":1,"la1":30.2991,"la2":30.254,"lo1":-89.0895,"lo2":-89.0444,"dy":0.0017,"dx":0.0017,"nx":28,"ny":28,"refTime":"2025-09-05T21:00:00:Z","depth":0,"parameterNumber":3,"parameterNumberName":"V-component_of_WINDS"},"data":[0,0,0,0,0,0,0,0,0,0,0,0,0,0,0,0,0,0,0,0,0,0,0,0,0,0,0,0,0,0,0,0,0,0,0,0,0,0,0,0,0,0,0,0,0,0,0,0,0,0,0,0,0,0,0,0,0,0,1.9742,1.9743,0,1.979,1.979,1.9791,1.9869,1.9871,1.9872,1.9873,1.9919,1.9919,1.9919,0,0,0,0,0,0,0,0,0,0,0,0,0,1.9716,1.9716,1.9742,1.9743,1.9743,1.979,1.979,1.9791,1.9869,1.9871,1.9872,1.9874,1.9919,1.9919,1.9919,0,0,0,0,0,0,0,0,0,0,0,0,0,1.9742,1.9716,1.9742,1.9788,1.9792,1.979,1.979,1.9791,1.9868,1.9871,1.9873,1.9875,1.9919,1.9919,1.9919,1.9874,0,0,1.9918,1.9918,0,0,0,0,0,0,0,0,1.974,1.9743,1.9781,1.9785,1.979,1.9826,1.9798,1.9819,1.9868,1.9839,1.9873,1.9876,1.9886,1.9889,1.9893,1.9876,1.9878,1.9918,1.9918,1.9918,1.9918,0,0,0,0,0,0,0,1.9738,1.9741,1.9761,1.9781,1.9787,1.9805,1.9811,1.9802,1.985,1.9842,1.9848,1.9853,1.9889,1.9893,1.9895,1.9879,1.9918,1.9918,1.9918,1.9918,1.9827,1.9825,0,0,0,0,0,0,1.973,1.9739,1.9759,1.9762,1.977,1.9804,1.9811,1.9812,1.985,1.9858,1.9851,1.9856,1.9892,1.9895,1.9896,1.9845,1.9918,1.9918,1.9918,1.9829,1.9827,1.9824,0,0,0,0,0,0,1.9729,1.9731,1.9758,1.9752,1.9757,1.9802,1.9803,1.9812,1.9816,1.9857,1.9865,1.9846,1.9894,1.9897,1.9879,1.9848,1.9918,1.9918,1.9832,1.9829,1.9825,1.9743,0,0,0,0,0,0,1.9728,1.9731,1.9715,1.9751,1.9757,1.974,1.9801,1.9811,1.9815,1.9823,1.9855,1.9862,1.9896,1.9879,1.9879,1.9849,1.9918,1.9835,1.9831,1.9826,1.9749,1.9737,1.9728,0,0,0,0,0,1.9727,1.9689,1.9713,1.9715,1.9738,1.9738,1.9741,1.9782,1.9813,1.9796,1.9823,1.9861,1.9852,1.9877,1.9877,1.9847,1.9837,1.9832,1.9827,1.9754,1.974,1.9728,0,0,0,0,0,0,1.9647,1.9695,1.9722,1.9695,1.9712,1.9751,1.9732,1.9766,1.9773,1.978,1.9829,1.9836,1.9811,1.9828,1.9854,1.9805,1.985,1.9845,1.9795,1.9782,1.9771,1.9767,1.9917,0,0,0,0,0,1.9626,1.9623,1.9665,1.9637,1.9644,1.9686,1.9688,1.9718,1.9737,1.9744,1.9769,1.9785,1.9786,1.9785,1.9788,1.9753,1.976,1.9732,1.9721,1.9712,1.9706,1.9687,1.9675,1.9807,1.9807,1.9807,0,0,1.9583,1.9609,1.9603,1.9621,1.9638,1.9632,1.9692,1.9683,1.9679,1.9742,1.9727,1.9746,1.9767,1.974,1.9729,1.9753,1.9672,1.9706,1.9698,1.9697,1.968,1.9668,1.9657,1.9804,1.9804,1.9805,0,0,1.95,1.9521,1.9499,1.9514,1.9539,1.9567,1.9562,1.9596,1.9611,1.9597,1.9644,1.964,1.964,1.9653,1.966,1.9582,1.9617,1.9582,1.9525,1.9506,1.9496,1.9487,1.9457,1.9446,1.9577,1.9576,1.9576,0,1.9443,1.9437,1.9483,1.9472,1.9477,1.9536,1.9513,1.9526,1.955,1.9552,1.9579,1.958,1.9599,1.9574,1.9555,1.956,1.9554,1.9578,1.9494,1.9485,1.9477,1.945,1.9439,1.9572,1.9572,1.9573,1.9573,0,1.9364,1.936,1.9339,1.9361,1.9365,1.9348,1.939,1.9389,1.9418,1.9444,1.9428,1.9452,1.9461,1.9458,1.9487,1.9437,1.9451,1.9485,1.9531,1.9459,1.9434,1.9424,1.9565,1.9567,1.9568,1.9569,0,0,1.9231,1.9279,1.9271,1.9281,1.9313,1.9309,1.9294,1.9304,1.93,1.9315,1.9302,1.9302,1.9334,1.9341,1.9372,1.9355,1.929,1.9392,1.9393,1.937,1.9235,1.9207,1.9194,1.9315,1.9313,1.9311,1.9233,0,1.9154,1.9132,1.9173,1.9141,1.9136,1.9191,1.9178,1.9195,1.9219,1.9217,1.9243,1.9241,1.9285,1.9289,1.9275,1.9301,1.9263,1.9308,1.9302,1.9301,1.9292,1.9182,1.9153,1.9077,1.9223,1.9222,1.922,0,1.906,1.907,1.9037,1.907,1.907,1.9057,1.9068,1.9067,1.9087,1.9106,1.9114,1.9151,1.9137,1.9184,1.9165,1.9194,1.9195,1.9207,1.9205,1.9204,1.9254,1.9175,1.9054,1.9041,1.9206,1.9207,1.9208,0,1.8963,1.8969,1.895,1.8957,1.8995,1.8985,1.9,1.9023,1.9026,1.9036,1.9037,1.9045,1.9049,1.9054,1.9091,1.9122,1.9068,1.9118,1.9081,1.9079,1.9065,1.9065,1.8939,1.9069,1.9069,1.9069,1.9069,0,1.887,1.8848,1.8907,1.8894,1.887,1.8918,1.8892,1.8913,1.8933,1.8925,1.8974,1.8966,1.9017,1.9014,1.9043,1.9022,1.9024,1.9037,1.9045,1.9031,1.9029,1.9031,1.9036,1.9066,1.9067,1.9067,1.9068,0,1.8757,1.8796,1.8778,1.8817,1.8826,1.8806,1.8838,1.8828,1.8855,1.8844,1.8844,1.8886,1.8885,1.8924,1.893,1.895,1.8915,1.8933,1.8908,1.8913,1.8873,1.8875,1.8742,1.8726,1.8867,1.8866,1.8865,0,1.8694,1.8678,1.8715,1.8713,1.8726,1.8724,1.8727,1.8773,1.8774,1.8796,1.8782,1.8785,1.879,1.8785,1.8815,1.882,1.8837,1.879,1.8838,1.8825,1.8834,1.8834,1.8831,1.8779,1.8778,1.8776,1.8775,0,1.8578,1.8598,1.8601,1.861,1.8613,1.8622,1.8635,1.863,1.8681,1.8679,1.8679,1.8683,1.8689,1.8691,1.8701,1.8716,1.8753,1.876,1.8751,1.8736,1.8721,1.8727,1.8878,1.8762,1.8764,1.8764,1.8765,1.8766,1.8487,1.8475,1.8498,1.8499,1.8514,1.8524,1.8516,1.8543,1.8543,1.8553,1.858,1.8574,1.8595,1.8613,1.8625,1.8621,1.8644,1.8632,1.8628,1.8624,1.8615,1.8724,1.8623,1.8623,1.8624,1.8624,1.8624,0,1.8371,1.8389,1.839,1.8406,1.8407,1.8444,1.8459,1.8457,1.8452,1.8468,1.8472,1.847,1.8472,1.8503,1.8508,1.8499,1.8516,1.8498,1.8498,1.8501,1.8595,1.8601,1.8484,1.8484,1.8484,1.8485,1.8485,1.8485,1.8311,1.8292,1.8314,1.8302,1.8321,1.8316,1.8321,1.8331,1.8344,1.8341,1.8343,1.8364,1.8385,1.8393,1.8395,1.8405,1.8403,1.8379,1.8394,1.8481,1.8494,1.8507,1.8513,1.8379,1.8379,1.8299,1.8298,1.8298]}]]